Find Starlink 32388

NORAD ID: 62144 Int'l Des: 2024-224 Owner: SPXS Country: US Constellation: starlink operational
LEOCIRCULAR

現在のビュー

3D地球を読み込み中...

About Starlink 32388

Starlink 32388 (NORAD 62144) is a starlink constellation satellite (v2 mini) launched Nov 30, 2024 by SPXS of US. It operates in LEO, CIRCULAR orbit with a mass of 730.00 kg.

Starlink 32388について

説明を読み込み中...

次回通過

Passes for default location (London). Set your location on the main map for personalized predictions.

高度履歴

Loading altitude history...

軌道要素

1 62144U 24224F 26196.39005521 .00003800 00000-0 14751-3 0 9992
2 62144 42.9986 164.3987 0000676 289.4600 70.6179 15.27582001 91925
Epoch: Jul 15, 2026 • Age: 17 hours

現在のステータス

高度 482.1 km
遠地点 / 近地点 N/A
速度 7.63 km/s
衛星直下点 16.43°N, 156.26°W
打ち上げ日 Nov 30, 2024
運用期間 1.6 years
タイプ internet

技術仕様

分類 Payload
質量 730.00 kg
乾燥質量 700.00 kg
総質量 730.00 kg
長さ 0.30 m
直径 4.10 m
スパン 29.00 m
形状 Box + pan
製造者 SPXS
バスタイプ Starlink V2M
フェーズステータス In Orbit
所有者/国 SPXS/US

Most Searched